FALCON 9 R/B (46803 NORAD) Tracking and Keplerian Element Data

This shows tracking and keplerian element data for the satellite.

Feedback or suggestion? Click here.




ElementValue
Catalog46803
NameFALCON 9 R/B
Epoch Orbit403
Epoch Day320.70844032
Epoch Year2020
RAAN47.1403
Inclination53.0422
Eccentricity0.0002302
Argument of Perigee125.6831
Mean Anonmoly1.1036
Mean Motion16.54186693
Decay Rate0.30059672
L11 46803U 20074BS 20320.70844032 .30059672 12736-4 17716-3 0 9999
L22 46803 53.0422 47.1403 0002302 125.6831 1.1036 16.54186693 4038

Live tracking and technical data element details for FALCON 9 R/B (NORAD 46803). FALCON 9 R/B can be tracked NOW for your location showing map with azimuth and elevation plus other details from your city location.

Track the satellite on the map from your city or location and see movement details for azimuth, elevation, latitude, longitude, range, height, and movement on the map or in text.







IsCatalogInMostPopularTable: catalog: 46803, numindb: 9
Update: records affected: 1



GetName: 46803 FALCON 9 R/B

Hit Count: updated at: Thu, 26 Nov 2020 20:10:03 GMT